Weather Roundup
Issued by NWS Springfield, MO

Home | Current Version | Previous Version | Text Only | Print | Product List | Glossary On
Versions: 1 2 3 4 5 6 7 8 9 10 11 12 13 14 15 16 17 18 19 20 21 22 23 24 25 26 27 28 29 30 31 32 33 34 35 36 37 38 39 40 41 42 43 44 45 46 47 48 49 50
000
NZUS99 KSGF 012307
HRRSGF

HOURLY WEATHER
NATIONAL WEATHER SERVICE SPRINGFIELD MO
500 PM CST SUN FEB 01 2015

......SGF CWA......

CITY           SKY/WX    TMP DP  RH WIND       PRES   REMARKS
SPRINGFIELD    CLOUDY    28  23  81 NW20G30   29.91R WCI  15
JOPLIN         CLOUDY    25  18  74 NW17      30.03R WCI  12
WEST PLAINS    MIX PCPN  36  31  82 W20G30    29.79R WCI  25
ROLLA          CLOUDY    34  31  88 W17G24    29.75R WCI  23
OSAGE BEACH    CLOUDY    34  27  75 W17G24    29.84R WCI  23
BRANSON        CLOUDY    32  27  80 W7G16     29.90R WCI  26

......SURROUNDING SGF CWA......

CITY           SKY/WX    TMP DP  RH WIND       PRES   REMARKS
CHANUTE        CLOUDY    21  12  68 NW24G33   30.09R WCI   4
PARSONS        FLURRIES  23  14  68 NW23G32   30.11R WCI   7
COFFEYVILLE    CLOUDY    24  13  62 NW26G36   30.12R WCI   8
EMPORIA        LGT SNOW  15  10  80 NW25G38   30.13R WCI  -4
GROVE OK       CLOUDY    30  21  69 NW20G26   30.07R WCI  18
ROGERS AR      CLOUDY    26  23  88 W18G30    29.98R WCI  13
SILOAM SPRINGS CLOUDY   N/A N/A N/A NW22      30.02R
HARRISON AR    CLOUDY    31  28  89 W18G28    29.90R WCI  19
NEAR YELLVILLE CLOUDY    37  27  65 NW16G23   29.88R WCI  28

......KANSAS AND MISSOURI......

CITY           SKY/WX    TMP DP  RH WIND       PRES   REMARKS
KANSAS CTY INT LGT SNOW  20  16  84 NW23G29   30.01R VSB 3/4 WCI   3
DOWNTOWN KC    FLURRIES  24  17  74 NW17G26   30.03R WCI  11
COLUMBIA       LGT SNOW  34  33  96 NW14      29.79R FOG     WCI  25
SEDALIA        LGT SNOW  30  26  85 NW20G29   29.88R FOG     WCI  17
ST JOSEPH      LGT SNOW  19  15  84 N24G30    30.07R FOG     WCI   2
ST LOUIS       LGT RAIN  38  34  85 NW12      29.69R FOG     WCI  30
SPIRIT OF STL  CLOUDY    37  34  89 W16G22    29.71R WCI  28
KIRKSVILLE     LGT SNOW  22  18  85 N20G33    29.88R FOG     WCI   7
WICHITA        FLURRIES  21   9  59 N29G39    30.19R WCI   3
TOPEKA         LGT SNOW  17   9  70 NW28G33   30.14R WCI  -2
OLATHE         LGT SNOW  21  15  78 N21G35    30.00R WCI   5

......TENNESSEE......

CITY           SKY/WX    TMP DP  RH WIND       PRES   REMARKS
MEMPHIS        CLOUDY    53  49  86 W16       29.76R
NASHVILLE      HVY RAIN  55  53  93 S12G20    29.67F FOG

......ARKANSAS.......

CITY           SKY/WX    TMP DP  RH WIND       PRES   REMARKS
FAYETTEVILLE   CLOUDY    28  24  85 NW20G29   29.99R WCI  15
FT SMITH       CLOUDY    37  26  64 W25       30.03R WCI  25
LITTLE ROCK    CLOUDY    46  34  62 NW24G32   29.89R

......OKLAHOMA.......

CITY           SKY/WX    TMP DP  RH WIND       PRES   REMARKS
TULSA          CLOUDY    30  17  58 NW21G35   30.12R WCI  17
PONCA CITY     CLOUDY    27  14  58 N24G38    30.19R WCI  12
MCALESTER      FLURRIES  38  24  57 NW22G30   30.10R WCI  27
OKLAHOMA CITY  PTCLDY    37  20  50 N31G38    30.14R WCI  24

......IOWA............

CITY           SKY/WX    TMP DP  RH WIND       PRES   REMARKS
DES MOINES     LGT SNOW  18  12  77 N18G29    30.05R VSB 1   WCI   2
QUAD CITIES    SNOW      18  14  84 N15G30    29.84R VSB 1/2 WCI   4

......ILLINOIS........

CITY           SKY/WX    TMP DP  RH WIND       PRES   REMARKS
QUINCY         LGT SNOW  26  22  84 N25G32    29.76R FOG     WCI  11
CHICAGO        HVY SNOW  21  19  92 NE24G33   29.77R VSB 1/8 WCI   4



USA.gov is the U.S. government's official web portal to all federal, state and local government web resources and services.